Location: Unspecified
(0.0000°N, 0.0000°E)
Time: 22:48:13
(UTC+00:00)

LT-1 O1A - Pass Details

Date: 16 September 2024
Orbit: 602 x 604 km, 97.8° (Epoch: 03 October)

Event Time Altitude Azimuth Distance (km) Brightness Sun altitude
Rises 05:14:47 0° 35° (NE) 2,836 ? -10.0°
Reaches altitude 10° 05:17:19 10° 50° (NE) 1,937 ? -9.4°
Maximum altitude 05:20:37 23° 102° (ESE) 1,305 ? -8.5°
Drops below altitude 10° 05:23:55 10° 154° (SSE) 1,944 ? -7.7°
Sets 05:26:28 0° 168° (SSE) 2,850 ? -7.1°
